Location: Cherry Springs State Park
(41.6616°N, 77.8240°W)
Time: 14:29:41
(UTC-04:00)

Daily predictions for brighter satellites

Satellite Brightness Start Highest point End
(mag) Time Altitude Azimuth Time Altitude Azimuth Time Altitude Azimuth
Cosmos 1125 Rocket 4.1 20:58:28 10° SSE 21:03:13 36° ESE 21:07:58 10° NE
Meteor 2-3 Rocket 3.7 20:57:34 10° S 21:03:16 77° E 21:08:56 10° NNE
SJ-11-01 4.5 20:58:47 10° SSE 21:03:24 57° ENE 21:08:01 10° N
Cosmos 1634 Rocket 4.2 20:58:35 10° N 21:04:49 59° E 21:11:02 10° SSE
Meteor 1-26 Rocket 4.5 21:01:47 10° NNW 21:07:28 80° W 21:13:13 10° S
Cosmos 2344 4.2 21:04:11 10° S 21:10:54 34° ESE 21:18:00 10° NE
USA 186 2.8 21:09:51 10° S 21:12:28 41° W 21:15:18 10° NNW
Cosmos 1943 Rocket 2.5 21:09:27 10° S 21:14:43 43° ESE 21:19:57 10° NE
Cosmos 1782 3.5 21:11:28 10° N 21:15:12 36° ENE 21:18:53 10° SE
Cosmos 1892 3.5 21:16:18 10° SSW 21:20:04 54° W 21:23:51 10° N
Cosmos 158 Rocket 4.2 21:18:30 10° N 21:23:15 49° ENE 21:27:45 11° SE
Resurs 01 Rocket 3.5 21:23:51 10° SSW 21:27:46 31° W 21:31:43 10° NW
Okean 1-7 3.1 21:23:42 10° N 21:28:06 66° E 21:32:26 10° SSE
DELTA 2 R/B(2) 3.3 21:27:46 10° WSW 21:29:35 41° S 21:30:23 21° ESE
SAR-Lupe-4 3.8 21:27:23 11° SSE 21:30:42 51° ENE 21:34:11 10° N
Cosmos 1340 3.4 21:28:06 10° N 21:31:37 35° ENE 21:34:23 15° SE
Spot 1 4.4 21:29:31 10° SSE 21:34:21 83° ENE 21:39:27 10° NNW
NOAA 11 4.4 21:29:43 10° SSE 21:35:02 55° ENE 21:40:23 10° N
Cosmos 2279 Rocket 4.1 21:30:02 10° N 21:36:14 61° E 21:42:22 10° SSE
Cosmos 2263 4.2 21:30:42 10° SSW 21:36:28 84° ESE 21:42:14 10° NNE
Cosmos 1862 4.2 21:33:56 13° SSE 21:36:59 30° E 21:40:30 10° NNE
Meteor 1-29 2.9 21:37:17 10° NNE 21:40:47 75° E 21:44:15 10° S
YAOGAN 6 2.9 21:37:55 10° S 21:41:36 70° WSW 21:45:17 10° NNW
H-2A R/B 3.2 21:40:00 15° ESE 21:43:38 30° ENE 21:48:10 10° N
Cosmos 2369 Rocket 2.8 21:38:22 10° SW 21:43:57 62° WNW 21:49:38 10° NNE
CZ-4B DEB 2.5 21:41:28 13° S 21:44:03 79° WSW 21:46:59 10° NNW
ISS -1.8 21:41:21 10° W 21:44:17 30° NNW 21:47:14 10° NE
Terra 3.9 21:42:16 10° E 21:44:30 13° ENE 21:46:43 10° NNE
Tiangong 2 3.6 21:43:40 10° WSW 21:45:21 14° SW 21:47:02 10° S
Helios 1B rocket 2.7 21:43:58 10° N 21:48:05 72° WNW 21:52:09 10° SSW
ERS-1 Rocket 3.0 21:43:42 13° SSE 21:48:14 70° ENE 21:53:16 10° N
SAR-Lupe-1 4.0 21:49:32 16° SSE 21:52:15 82° ENE 21:55:51 10° N
Cosmos 1606 2.7 21:49:40 10° N 21:53:28 82° W 21:56:41 14° S
GPS 2-04 Rocket1 3.9 21:51:09 10° WSW 21:54:12 23° SSW 21:55:27 20° SSE
DNEPR-1 R/B 4.0 21:49:30 10° SW 21:54:44 73° NW 21:59:13 10° NNE
Cosmos 1833 4.3 21:49:36 10° NNW 21:55:23 68° ENE 21:59:29 19° SE
Lacrosse 4 Rocket 1.5 21:52:23 10° NNW 21:56:55 79° ENE 21:59:44 22° SSE
MetOp-B 4.1 21:53:50 16° SSE 21:58:08 71° ENE 22:03:29 10° N
H-2A ROCKET BODY 3.8 21:55:42 10° SSW 21:58:11 15° SSE 21:58:45 15° SSE
USA 215 3.6 21:53:28 15° ESE 21:58:53 61° NE 22:05:21 10° NW
Cosmos 1733 Rocket 3.4 21:56:23 19° SSE 21:59:07 43° E 22:03:14 10° NNE
Aureole 3 3.8 21:56:36 10° SSW 21:59:27 42° W 22:02:21 10° N
ATLAS 5 CENTAUR R/B 2.5 21:53:48 10° NW 21:59:51 87° SW 22:04:39 20° SSE
Milstar 3 4.1 21:52:33 10° WSW 22:03:10 34° S 22:07:42 20° SE
Cosmos 1048 Rocket 4.2 21:58:09 10° NNW 22:03:28 74° WSW 22:07:37 16° S
ATLAS CENTAUR R/B 2.5 22:05:12 22° ESE 22:05:12 22° ESE 22:07:47 10° ENE
Cosmos 1437 4.1 22:06:13 10° NNE 22:08:51 23° ENE 22:09:07 23° E
Cosmos 1656 Rocket 3.7 22:03:54 10° S 22:09:11 54° ESE 22:14:34 10° NNE
Cosmos 1408 3.5 22:05:42 10° SSW 22:09:18 49° W 22:12:57 10° N
SPOT 5 3.2 22:06:19 22° SSE 22:09:48 64° ENE 22:15:01 10° N
ARGOS 3.1 22:10:08 21° SSE 22:13:52 81° ENE 22:19:15 10° NNW
Alouette 2 Rocket 4.5 22:07:04 10° S 22:14:44 63° E 22:19:39 10° NNE
Lacrosse 5 rocket 3.6 22:12:46 10° W 22:15:43 23° NNW 22:18:44 10° NNE
CENTAUR R/B 3.2 22:13:37 10° SW 22:19:35 58° NW 22:26:26 10° NNE
Cosmos 1346 4.4 22:21:04 10° NNE 22:22:51 24° NE 22:22:51 24° NE
Meteor 1-27 Rocket 3.9 22:21:56 10° NNW 22:27:40 75° W 22:31:31 21° S
Cosmos 2251 Rocket 3.7 22:27:18 10° NNW 22:32:27 55° ENE 22:34:28 34° SE
Cosmos 1825 4.2 22:30:07 10° SW 22:33:22 27° WNW 22:36:39 10° NNW
CARTOSAT-1 4.4 22:33:14 31° E 22:34:11 35° ENE 22:38:08 10° N
SL-08 RB Rocket 3.8 22:33:00 30° S 22:35:20 77° WSW 22:40:01 10° NNW
Cosmos 1378 Rocket 4.0 22:31:49 10° N 22:36:05 44° ENE 22:37:01 39° ESE
Cosmos 1674 Rocket 3.4 22:32:07 10° N 22:36:28 83° E 22:37:55 41° SSE
DMSP B5D2-2 4.1 22:36:33 10° NNE 22:41:42 59° E 22:43:39 36° SSE
SPOT 1/Viking Rocket 3.5 22:39:33 33° SSE 22:41:58 88° WSW 22:47:13 10° NNW
Okean 3 3.5 22:39:04 10° N 22:43:13 59° E 22:43:55 50° ESE
IGS 5A 4.0 22:43:48 39° E 22:44:21 42° ENE 22:48:17 10° N
H-2A R/B 3.0 22:50:34 31° ENE 22:50:50 31° ENE 22:54:30 10° N
Cosmos 2227 Rocket 3.5 22:48:28 10° N 22:53:16 28° NE 22:55:17 22° E
Cosmos 1943 Rocket 4.2 22:53:50 10° WSW 22:58:36 28° NW 23:03:21 10° N
Nadezhda 4 Rocket 4.4 22:53:34 13° SSW 22:59:04 59° W 23:05:10 10° N
Cosmos 1092 Rocket 4.0 22:56:29 25° SSW 23:00:13 82° W 23:06:23 10° N
Cosmos 2219 3.2 22:56:29 10° NNW 23:02:17 86° ENE 23:04:04 47° SSE
Landsat 7 3.9 23:05:14 49° S 23:06:27 73° WSW 23:11:13 10° NNW
GEOS 3 Rocket 3.9 23:05:52 42° ESE 23:07:24 60° NE 23:12:33 10° NNW
Cosmos 1812 2.9 23:04:11 10° N 23:07:47 62° NE 23:07:47 62° NE
Cosmos 494 Rocket 4.3 23:03:32 10° NNW 23:08:39 57° WSW 23:10:11 41° SSW
Cosmos 1627 Rocket 4.4 23:07:56 39° S 23:10:25 80° E 23:16:48 10° N
Cosmos 1908 Rocket 3.9 23:12:38 46° SW 23:13:47 64° W 23:18:12 10° N
Cosmos 1553 Rocket 4.3 23:09:12 10° N 23:15:23 50° ENE 23:16:48 42° ESE
Meteor 1-14 Rocket 4.2 23:13:13 40° S 23:15:28 89° W 23:21:18 10° N
Cosmos 1867 4.0 23:14:46 10° NW 23:20:01 49° WSW 23:21:08 42° SSW
ISS -0.7 23:19:37 10° NW 23:21:32 15° N 23:23:27 10° NNE
Terra 1.8 23:20:55 61° SSW 23:21:37 73° WSW 23:26:24 10° NNW
H-2A R/B 3.2 23:20:37 26° SW 23:22:54 37° W 23:27:48 10° NNW
CZ-4B R/B 3.9 23:19:01 10° NNE 23:23:15 43° E 23:23:15 43° E
Okean 2 Rocket 3.1 23:29:03 67° ENE 23:29:03 67° ENE 23:33:07 10° NNE
Cosmos 405 Rocket 3.2 23:26:59 10° NNW 23:29:59 55° NNW 23:29:59 55° NNW
APEX 3.9 23:29:02 10° NNW 23:32:37 48° NNE 23:32:37 48° NNE
Lacrosse 4 Rocket 4.2 23:34:31 10° W 23:34:54 10° WSW 23:35:17 10° WSW
Gbstr 26 Del rocket 3.4 23:30:51 10° NW 23:35:02 51° NNE 23:35:02 51° NNE
SL-19 R/B 4.5 23:32:55 10° NNE 23:39:01 84° WNW 23:41:05 46° SSW
deb Chang Zheng 4 3.6 23:35:23 10° NNE 23:39:30 76° NNE 23:39:30 76° NNE
DELTA 2 DEB (DPAF) 4.4 23:40:35 61° NE 23:40:35 61° NE 23:44:42 10° N
Cosmos 1782 Rocket 4.0 23:41:11 54° W 23:41:26 55° W 23:45:45 10° N
USA 215 3.8 23:40:49 37° SSW 23:42:03 41° SW 23:48:11 10° WNW
CZ-4C R/B 4.0 23:43:49 52° NNE 23:43:49 52° NNE 23:47:13 10° N
ATLAS CENTAUR R/B 2.9 23:41:20 19° W 23:43:30 32° NW 23:46:58 10° NNE
Cosmos 1697 Rocket 4.1 23:45:11 25° ENE 23:45:11 25° ENE 23:48:24 10° NE
ATLAS 5 CENTAUR R/B 4.5 23:40:26 10° WNW 23:43:58 16° WSW 23:46:13 13° SW
Cosmos 2266 Rocket 4.3 23:44:11 45° E 23:44:31 45° E 23:50:18 10° NNE
CZ-2C R/B 3.9 23:45:38 36° ENE 23:45:43 36° ENE 23:50:11 10° N
Okean 1 3.9 23:42:45 10° N 23:45:55 55° NNW 23:45:55 55° NNW
Meteor 1-18 Rocket 4.5 23:41:35 10° NNW 23:47:16 64° W 23:48:21 53° SW
Cosmos 2297 Rocket 2.4 23:42:08 10° NNW 23:47:44 57° ENE 23:48:21 54° E
BREEZE-M DEB (TANK) 4.5 23:28:38 10° WNW 23:48:59 80° SSW 23:50:53 52° SE
Cosmos 1441 Rocket 4.3 23:50:14 10° NNW 23:53:01 43° NW 23:53:01 43° NW
ARGOS Delta rocket 3.8 23:50:42 10° N 23:54:44 69° NNW 23:54:44 69° NNW
